www.pogodaiklimat.ru

Погода и климат >> Архив погоды >> Ирландия >> Roches Point


ПОГОДА в Roches Point

  • Прогноз погоды в Roches Point
  • Монитор погоды в Roches Point
  • Климат города

АРХИВ ПОГОДЫ в Roches Point

Время (UTC), дата Ветер
(напр.,м/с)
 
Видим.   Явления Облачность Т
(С)
Тd
(С)
f
(%)
Тe
(С)
Тes
(С)
Комфортность P
(гПа)
Po
(гПа)
Тmin
(С)
Tmax
(С)
R
(мм)
R24
(мм)
S
(см)
17 10.12 ЮЗ 8 7000 м дымка н/о +11.0 +9.9 93 +7 +7 1025.1 1020.1
16 10.12 ЮЗ 8 8000 м дымка н/о +11.1 +9.8 92 +7 +7 1025.4 1020.4
18 10.12 ЮЗ 6 7000 м дымка н/о +11.0 +9.9 93 +8 +8 1025.1 1020.1 +11.1 0.2
19 10.12 Ю 5 6000 м дымка н/о +10.9 +10.0 94 +8 +8 1025.0 1020.0
20 10.12 Ю 5 8000 м дымка н/о +10.9 +9.7 92 +8 +8 1024.7 1019.6
21 10.12 Ю 6 5000 м дымка н/о +10.5 +9.5 94 +7 +7 1025.0 1019.9
23 10.12 Ю 6 9000 м дымка н/о +10.1 +9.2 94 +7 +7 1024.3 1019.2
22 10.12 Ю 6 7000 м дымка н/о +10.3 +9.4 94 +7 +7 1024.7 1019.6
00 11.12 Ю 7 9000 м дымка н/о +10.1 +9.2 94 +6 +6 1023.6 1018.6 0.1
01 11.12 Ю 7 5000 м слаб. ливневой дождь {дымка} н/о +10.0 +9.4 96 +6 +6 1023.0 1018.0
02 11.12 Ю 8 11 км н/о +9.9 +9.0 94 +6 +6 1022.2 1017.1
03 11.12 Ю 8 9000 м дымка н/о +9.9 +8.9 93 +6 +6 1021.6 1016.6
05 11.12 Ю 8 10 км дымка н/о +9.9 +8.6 92 +6 +6 1020.0 1015.0
04 11.12 Ю 8 6000 м дымка н/о +9.9 +9.0 94 +6 +6 1020.9 1015.9
06 11.12 Ю 8 8000 м дымка н/о +10.0 +8.7 92 +6 +6 1019.0 1014.0 +9.8 0.5
07 11.12 ЮВ 9 9000 м дымка н/о +9.8 +8.6 92 +5 +5 1018.4 1013.4
08 11.12 Ю 9 9000 м н/о +10.0 +8.6 91 +6 +6 1017.9 1012.9
09 11.12 ЮВ 11 12 км н/о +10.2 +8.4 89 +6 +6 1017.5 1012.5
11 11.12 ЮВ 11 11 км н/о +10.6 +8.5 87 +6 +6 1016.6 1011.6
10 11.12 ЮВ 10 11 км н/о +10.5 +8.6 88 +6 +6 1016.9 1011.9
12 11.12 Ю 10 10 км н/о +10.9 +8.8 87 +7 +7 1015.8 1010.8
13 11.12 Ю 12 9000 м слаб. ливневой дождь {дымка} н/о +10.8 +8.4 85 +6 +6 1014.4 1009.4
14 11.12 Ю 13
{18}
7000 м слаб. дождь н/о +10.6 +8.9 89 +6 +6 1013.0 1008.0
15 11.12 ЮВ 13
{18}
6000 м слаб. ливневой дождь н/о +10.6 +9.4 92 +6 +6 1012.1 1007.2
17 11.12 ЮЗ 8 6000 м слаб. дождь н/о +10.1 +8.3 89 +6 +6 1012.1 1007.1
16 11.12 Ю 13
{18}
4200 м слаб. ливневой дождь н/о +10.8 +9.6 92 +6 +6 1011.5 1006.5
18 11.12 Ю 7 9000 м слаб. ливневой дождь н/о +10.4 +8.9 90 +7 +7 1012.4 1007.5 +10.9 4
19 11.12 Ю 6 10 км слаб. ливневой дождь н/о +10.4 +9.1 92 +7 +7 1012.3 1007.4
20 11.12 З 5 17 км в посл. час морось н/о +9.2 +8.0 92 +6 +6 1013.0 1008.0
21 11.12 З 4 17 км {ливн. осадки, морось} н/о +8.5 +7.3 92 +5 +5 1013.5 1008.5
23 11.12 С 5 35 км н/о +8.3 +6.6 89 +5 +5 1014.3 1009.3
22 11.12 З 6 16 км н/о +8.1 +7.0 93 +4 +4 1014.4 1009.4
00 12.12 СЗ 6 30 км {ливн. осадки, морось} н/о +7.5 +6.2 91 +3 +3 1015.4 1010.3 0.1
01 12.12 СЗ 4 30 км н/о +6.7 +5.3 91 +3 +3 1015.6 1010.5
02 12.12 СЗ 4 29 км н/о +6.3 +5.0 91 +2 +2 1016.2 1011.1
03 12.12 СЗ 3 25 км н/о +5.6 +4.3 91 +2 +2 1016.4 1011.4
05 12.12 С 2 45 км н/о +4.9 +3.5 91 +2 +2 1016.2 1011.1
04 12.12 С 2 16 км н/о +4.6 +3.4 92 +2 +2 1016.2 1011.1
06 12.12 С 2 19 км н/о +5.0 +3.8 92 +2 +2 1015.6 1010.5 +4.5 0.3
07 12.12 СВ 1 23 км н/о +4.4 +3.5 94 +3 +3 1015.8 1010.7
08 12.12 ЮВ 2 8000 м дымка н/о +4.8 +3.7 93 +2 +2 1015.2 1010.1
09 12.12 СЗ 2 12 км н/о +6.2 +5.5 95 +4 +4 1014.8 1009.7
11 12.12 Ю 8 21 км н/о +9.7 +6.3 79 +6 +6 1013.3 1008.3
10 12.12 Ю 6 23 км н/о +9.1 +5.7 79 +5 +5 1013.8 1008.8
12 12.12 Ю 9 22 км н/о +9.6 +5.5 76 +5 +5 1011.9 1006.9 0.1
13 12.12 Ю 9 23 км н/о +10.1 +6.4 78 +6 +6 1010.9 1006.0
14 12.12 ЮВ 11 23 км н/о +9.8 +6.1 78 +5 +5 1009.6 1004.7
15 12.12 ЮВ 12 17 км н/о +9.8 +5.9 77 +5 +5 1008.6 1003.6
17 12.12 Ю 14
{19}
16 км н/о +10.0 +6.2 77 +5 +5 1006.5 1001.6
16 12.12 ЮВ 13 17 км н/о +9.9 +5.8 76 +5 +5 1007.3 1002.4
18 12.12 ЮВ 14
{21}
9000 м слаб. дождь н/о +9.5 +7.0 84 +4 +4 1005.4 1000.4 +10.4 1
19 12.12 ЮВ 16
{23}
8000 м слаб. дождь н/о +8.8 +5.7 81 +3 +3 1004.5 999.5
20 12.12 ЮВ 15
{21}
13 км слаб. ливневой дождь н/о +9.1 +6.2 82 +3 +3 1003.6 998.6
21 12.12 ЮВ 14
{20}
7000 м слаб. дождь {ливн. осадки} н/о +9.7 +7.1 84 +4 +4 1002.7 997.8
23 12.12 ЮВ 15
{22}
9000 м слаб. ливневой дождь н/о +10.2 +7.4 83 +5 +5 1001.3 996.3
22 12.12 ЮВ 15
{21}
6000 м слаб. ливневой дождь н/о +10.0 +7.5 84 +5 +5 1002.1 997.1
00 13.12 ЮВ 16
{21}
9000 м в посл. час дождь {ливн. осадки} н/о +10.4 +7.7 83 +5 +5 1000.8 995.9 2
01 13.12 ЮВ 15
{22}
10 км дымка н/о +10.2 +7.1 81 +5 +5 1000.4 995.5
02 13.12 ЮВ 15
{22}
7000 м слаб. дождь н/о +10.0 +7.2 83 +5 +5 1000.6 995.6
03 13.12 ЮВ 15
{22}
6000 м слаб. дождь {дымка} н/о +9.8 +7.0 83 +4 +4 1000.1 995.2
05 13.12 ЮВ 17
{25}
6000 м слаб. дождь н/о +9.2 +7.1 87 +3 +3 1000.0 995.1
04 13.12 ЮВ 16
{23}
5000 м слаб. дождь н/о +9.5 +7.3 86 +4 +4 999.8 994.9
06 13.12 ЮВ 17
{24}
4500 м слаб. дождь {дымка} н/о +9.0 +6.9 87 +3 +3 1000.0 995.0 +8.7 6
07 13.12 ЮВ 16
{25}
5000 м слаб. дождь н/о +9.2 +8.1 93 +3 +3 1000.8 995.8
08 13.12 ЮВ 16
{22}
4700 м слаб. дождь н/о +9.1 +7.8 92 +3 +3 1001.5 996.5
09 13.12 ЮВ 16
{21}
2400 м слаб. ливневой дождь н/о +9.0 +7.8 92 +3 +3 1002.9 997.9
11 13.12 ЮВ 14
{21}
7000 м дымка {ливн. осадки} н/о +9.2 +7.6 90 +4 +4 1005.0 1000.0
10 13.12 ЮВ 15
{21}
7000 м слаб. ливневой дождь н/о +9.3 +7.6 89 +4 +4 1003.5 998.6
12 13.12 ЮВ 12
{19}
н/о н/о +9.1 +8.0 93 +4 +4 1005.6 1000.7 4
13 13.12 ЮВ 12 н/о н/о +9.4 +8.0 91 +4 +4 1006.4 1001.4
14 13.12 ЮВ 11 н/о н/о +9.0 +8.1 94 +4 +4 1007.4 1002.4
15 13.12 ЮВ 10 н/о н/о +9.1 +8.3 95 +4 +4 1008.0 1003.0
17 13.12 ЮВ 11 н/о н/о +9.0 +8.0 93 +4 +4 1010.0 1005.0
16 13.12 ЮВ 10 н/о н/о +9.2 +8.0 92 +4 +4 1008.9 1004.0
18 13.12 ЮВ 10 н/о н/о +9.0 +8.0 93 +4 +4 1010.9 1005.9 7
19 13.12 ЮВ 11 н/о н/о +8.9 +7.6 92 +4 +4 1011.5 1006.5
20 13.12 ЮВ 11 н/о н/о +8.8 +7.2 90 +4 +4 1012.3 1007.3
21 13.12 ЮВ 11 н/о н/о +8.6 +7.1 90 +3 +3 1013.0 1008.0
23 13.12 ЮВ 10 н/о н/о +8.5 +6.6 88 +3 +3 1013.4 1008.4
22 13.12 ЮВ 12 н/о н/о +8.4 +6.4 87 +3 +3 1013.0 1008.0
00 14.12 ЮВ 10 н/о н/о +8.7 +6.1 84 +4 +4 1014.1 1009.1 0.3
01 14.12 ЮВ 10 н/о н/о +8.4 +6.7 89 +3 +3 1014.3 1009.2
02 14.12 ЮВ 9 н/о н/о +8.4 +7.2 92 +3 +3 1013.9 1008.9
03 14.12 ЮВ 10 н/о н/о +8.9 +6.8 87 +4 +4 1013.9 1008.9
05 14.12 ЮВ 10 н/о н/о +8.9 +7.2 89 +4 +4 1013.2 1008.2
04 14.12 ЮВ 9 н/о н/о +8.8 +7.6 92 +4 +4 1013.8 1008.8
06 14.12 ЮВ 11 н/о н/о +8.9 +7.7 92 +4 +4 1013.1 1008.1 +8.3 2
07 14.12 ЮВ 10 н/о н/о +9.0 +7.8 92 +4 +4 1012.9 1007.9
08 14.12 ЮВ 11 н/о н/о +9.3 +7.9 91 +4 +4 1012.8 1007.8
09 14.12 Ю 6 н/о н/о +9.7 +7.8 88 +6 +6 1013.2 1008.3
11 14.12 Ю 11 н/о н/о +10.1 +7.5 84 +5 +5 1013.3 1008.4
10 14.12 Ю 8 н/о н/о +9.7 +7.2 84 +6 +6 1013.0 1008.0
12 14.12 Ю 13 н/о н/о +10.2 +7.1 81 +5 +5 1012.9 1007.9
13 14.12 Ю 13 н/о н/о +10.2 +6.9 80 +5 +5 1012.3 1007.4
14 14.12 Ю 12 н/о н/о +10.1 +7.2 82 +5 +5 1011.8 1006.8
15 14.12 Ю 12 н/о н/о +9.7 +7.9 89 +5 +5 1011.2 1006.3
17 14.12 ЮВ 12 н/о н/о +9.4 +8.7 95 +4 +4 1010.4 1005.5
16 14.12 Ю 12 н/о н/о +9.2 +8.2 93 +4 +4 1010.6 1005.6
18 14.12 ЮВ 14
{18}
н/о н/о +9.5 +8.9 96 +4 +4 1009.3 1004.3 +10.4 2
19 14.12 ЮВ 15
{20}
н/о н/о +9.7 +9.1 96 +4 +4 1008.3 1003.4
20 14.12 Ю 14
{19}
н/о н/о +9.9 +9.4 97 +4 +4 1007.6 1002.7
21 14.12 ЮВ 15
{21}
н/о н/о +10.2 +9.7 97 +5 +5 1007.0 1002.1
23 14.12 Ю 13
{19}
н/о н/о +10.7 +10.2 97 +6 +6 1005.4 1000.5
22 14.12 Ю 14
{19}
н/о н/о +10.6 +9.9 95 +5 +5 1006.1 1001.1
00 15.12 ЮВ 13 н/о н/о +10.9 +10.4 97 +6 +6 1004.2 999.3 6
01 15.12 ЮВ 10 н/о н/о +10.9 +10.5 97 +7 +7 1003.6 998.7
02 15.12 ЮВ 11 н/о н/о +11.0 +10.7 98 +7 +7 1002.0 997.1
03 15.12 ЮВ 11 н/о ?/? +11.2 +10.9 98 +7 +7 1000.6 995.7
05 15.12 Ю 9 н/о ?/? +11.4 +11.1 98 +7 +7 998.8 993.9
04 15.12 Ю 9 н/о ?/? +11.3 +11.1 99 +7 +7 999.3 994.4
06 15.12 Ю 10 н/о ?/? +11.4 +11.1 98 +7 +7 998.1 993.2 +9.5 16
07 15.12 Ю 11 н/о н/о +11.3 +11.0 98 +7 +7 996.2 991.3
08 15.12 Ю 12 н/о ?/? +11.5 +11.1 97 +7 +7 994.3 989.4
09 15.12 Ю 15
{19}
н/о ?/? +11.8 +11.6 99 +7 +7 992.2 987.3
11 15.12 Ю 16
{21}
н/о н/о +12.1 +11.7 97 +7 +7 990.0 985.1
10 15.12 Ю 17
{21}
н/о н/о +12.1 +11.7 97 +7 +7 991.4 986.6
12 15.12 Ю 15
{20}
н/о н/о +12.1 +11.6 97 +8 +8 988.1 983.3 6
13 15.12 Ю 11
{18}
н/о н/о +11.9 +11.2 95 +8 +8 985.1 980.3
14 15.12 Ю 16
{24}
3900 м слаб. ливневой дождь н/о +10.2 +9.1 93 +5 +5 981.3 976.5
15 15.12 З 9
{19}
4300 м слаб. ливневой дождь н/о +10.3 +9.3 94 +6 +6 981.0 976.2
17 15.12 З 15
{24}
35 км в посл. час морось н/о +7.0 +4.0 81 0 0 991.6 986.7
16 15.12 СЗ 20
{30}
13 км слаб. дождь н/о +7.2 +4.7 84 -0 -0 986.6 981.7
18 15.12 З 12
{22}
40 км н/о +7.1 +3.8 80 +1 +1 994.6 989.6 +12.2 7
19 15.12 З 11 28 км н/о +7.2 +3.7 78 +1 +1 996.6 991.7
20 15.12 З 8 22 км н/о +6.9 +3.7 80 +2 +2 997.9 993.0
21 15.12 З 8 17 км в посл. час осадки н/о +6.8 +3.9 82 +2 +2 998.9 994.0
23 15.12 ЮЗ 7 27 км н/о +6.0 +4.0 87 +1 +1 1000.2 995.3
22 15.12 З 8 29 км в посл. час дождь {ливн. осадки} н/о +6.1 +3.8 85 +1 +1 999.6 994.6
00 16.12 ЮЗ 5 26 км {ливн. осадки, осадки} н/о +6.2 +4.0 86 +2 +2 1000.6 995.6 0.3
01 16.12 ЮЗ 4 22 км н/о +6.2 +3.4 82 +2 +2 1000.9 995.9
02 16.12 З 4 26 км н/о +6.4 +3.3 81 +3 +3 1001.1 996.1
03 16.12 СЗ 2 23 км слаб. ливневой дождь н/о +6.1 +3.4 83 +4 +4 1001.1 996.1
05 16.12 ЮЗ 3 16 км н/о +7.3 +4.1 80 +4 +4 999.8 994.8
04 16.12 ЮЗ 3 27 км в посл. час дождь {ливн. осадки} н/о +6.3 +3.9 85 +3 +3 1000.4 995.4
06 16.12 Ю 7 16 км {ливн. осадки} н/о +8.8 +5.8 81 +5 +5 999.3 994.4 +5.8 0.9
07 16.12 ЮЗ 8 14 км слаб. дождь н/о +8.3 +5.3 81 +4 +4 999.2 994.3
08 16.12 ЮЗ 5 26 км слаб. ливневой дождь н/о +7.3 +4.8 84 +3 +3 999.3 994.3
09 16.12 Ю 3 13 км слаб. ливневой дождь н/о +7.3 +5.3 87 +4 +4 999.2 994.3
11 16.12 З 5 8000 м дождь н/о +6.7 +5.5 92 +2 +2 999.7 994.7
10 16.12 Ю 7 10 км дождь н/о +7.5 +6.1 91 +3 +3 999.3 994.4
12 16.12 СЗ 3 40 км морось {ливн. осадки, дождь} н/о +6.0 +4.6 91 +3 +3 999.6 994.6 6
13 16.12 З 3 35 км н/о +6.7 +5.0 89 +4 +4 999.8 994.8
14 16.12 З 4 35 км н/о +8.0 +5.4 84 +5 +5 1000.2 995.2
15 16.12 З 2 35 км н/о +8.6 +5.3 80 +7 +7 1001.1 996.1
17 16.12 З 4 25 км н/о +7.0 +4.4 84 +3 +3 1003.2 998.2
16 16.12 З 6 29 км н/о +7.8 +5.2 84 +4 +4 1001.9 996.9
18 16.12 З 5 27 км н/о +6.5 +4.5 87 +2 +2 1004.2 999.2 +9.0 6
19 16.12 З 6 30 км н/о +6.7 +4.6 86 +2 +2 1005.2 1000.2
20 16.12 З 5 35 км н/о +6.2 +3.7 84 +2 +2 1006.1 1001.1
21 16.12 ЮЗ 5 23 км н/о +6.2 +3.8 85 +2 +2 1007.1 1002.1
23 16.12 ЮЗ 5 19 км н/о +6.3 +4.0 85 +2 +2 1008.5 1003.5
22 16.12 ЮЗ 5 17 км н/о +6.0 +4.0 87 +2 +2 1007.7 1002.7
00 17.12 ЮЗ 4 20 км н/о +6.3 +4.1 86 +3 +3 1009.3 1004.3
01 17.12 З 4 20 км н/о +6.5 +4.2 85 +3 +3 1009.5 1004.5
02 17.12 ЮЗ 2 18 км н/о +6.2 +3.7 84 +4 +4 1009.5 1004.5
03 17.12 ЮЗ 4 12 км н/о +7.0 +4.6 85 +3 +3 1010.3 1005.3
05 17.12 Ю 9 16 км н/о +9.9 +6.7 80 +6 +6 1009.7 1004.7
04 17.12 ЮЗ 6 20 км н/о +8.7 +5.3 79 +5 +5 1010.2 1005.2
06 17.12 Ю 9 14 км н/о +9.7 +7.3 85 +5 +5 1009.6 1004.6 +5.4 0.1
07 17.12 Ю 9 12 км н/о +10.1 +7.6 84 +6 +6 1009.4 1004.5
08 17.12 Ю 12 11 км н/о +10.4 +8.1 86 +6 +6 1008.6 1003.6
09 17.12 Ю 14
{18}
10 км слаб. ливневой дождь н/о +10.7 +8.5 86 +6 +6 1008.1 1003.2
11 17.12 Ю 15
{19}
7000 м слаб. ливневой дождь н/о +10.8 +9.5 92 +6 +6 1007.8 1002.8
10 17.12 Ю 14
{19}
4900 м слаб. ливневой дождь н/о +10.7 +9.2 90 +6 +6 1008.1 1003.1
12 17.12 Ю 15
{20}
7000 м в посл. час морось {ливн. осадки} н/о +11.2 +9.6 90 +6 +6 1006.7 1001.7 0.3
13 17.12 Ю 15
{20}
7000 м дымка н/о +11.5 +9.7 89 +7 +7 1005.4 1000.5
14 17.12 Ю 16
{21}
7000 м дымка н/о +11.6 +9.7 88 +7 +7 1004.4 999.5
15 17.12 Ю 16
{22}
6000 м дымка н/о +11.6 +9.8 89 +7 +7 1003.6 998.7

 

Местоположение метеостанции Roches Point (Ирландия): широта 51.80 долгота -8.25 высота над уровнем моря 41 м.

В архиве по умолчанию представлена погода в Roches Point за последнюю неделю. Архивные данные за месяц целиком и за предыдущие месяцы, начиная с января 2011 года, Вы можете получить, выбрав интересующий диапазон дат из раскрывающегося списка и нажав кнопку "Ввод!".


*Определитесь, кто Вы:
робот инопланетянин человек

Внимание! Время в таблицах - всемирное. Для получения местного времени необходимо прибавить поправку, которая в Roches Point равна 0 ч.

Смотрите также архив погоды в соседних городах и на ближайших метеорологических станциях:

Погода в Cork Airport (Ирландия) (17 км)
Погода в Sherkin Island (Ирландия) (89 км)
Погода в Shannon Airport (Ирландия) (109 км)
Погода в Johnstown Castle (Ирландия) (132 км)
Погода в Gurteen (Ирландия) (138 км)
Погода в Valentia Observatory (Ирландия) (138 км)
Погода в Oak Park, Carlow (Ирландия) (149 км)
Погода в Mace Head (Ирландия) (203 км)
Погода в Mullingar (Ирландия) (203 км)
Погода в Casement Aerodrome (Ирландия) (208 км)

Пояснения к столбцам:

Ветер - указаны скорость ветра в м/с - средняя за 10 мин, порывы в срок и между сроками (в фигурных скобках) и направление, откуда дует ветер: С - северный, СВ - северо-восточный, В - восточный, ЮВ - юго-восточный, Ю - южный, ЮЗ - юго-западный, З - западный, СЗ - северо-западный.
Видимость - горизонтальная дальность видимости в метрах или километрах. При видимости от 1 до 10 км при отсутствии осадков обычно наблюдается дымка, при ухудшении видимости до 1 км и менее - туман. В сухую погоду видимость может ухудшаться дымом, пылью или мглою.
Явления - указаны атмосферные явления, наблюдавшиеся в срок или в последний час перед сроком; фигурными скобками обозначены явления, наблюдавшиеся между сроками (за 1-3 часа до срока); квадратными скобками обозначены град или гололедные отложения с указанием их диаметра в мм.
Облачность - указаны через наклонную черту общая и нижняя облачность в баллах и высота нижней границы облаков в метрах; квадратными скобками обозначены формы облаков: Ci - перистые, Cs - перисто-слоистые, Cc - перисто-кучевые, Ac - высококучевые, As - высокослоистые, Sc - слоисто-кучевые, Ns - слоисто-дождевые, Cu - кучевые, Cb - кучево-дождевые. Подробнее классификацию облаков см. в Атласе облаков (PDF).
T - Температура воздуха - температура, измеренная на высоте 2 м над землей.
Td - Температура точки росы - температура, при понижении до которой содержащийся в воздухе водяной пар достигнет насыщения.
f - Относительная влажность воздуха - влажноcть воздуха, измеренная на высоте 2 м над землей.
Te - Эффективная температура - температура, которую ощущает одетый по сезону человек в тени. Характеристика душности погоды. При расчете учитывается влияние влажности воздуха и скорости ветра на теплоощущения человека.
Tes - Эффективная температура на солнце - температура, которую ощущает человек, с поправкой на солнечный нагрев. Характеристика знойности погоды. Зависит от высоты солнца над горизонтом, облачности и скорости ветра. Ночью, в пасмурную погоду, а также при ветре 12 м/с и более поправка равна нулю.
P - Атмосферное давление - приведенное к уровню моря атмосферное давление.
Po - Атмосферное давление - измеренное на уровне метеостанции атмосферное давление.
Tmin - Минимальная температура - минимум температуры воздуха на высоте 2 м над землей.
Tmax - Максимальная температура - максимум температуры воздуха на высоте 2 м над землей.
R - Количество осадков - Количество выпавших осадков за период времени, мм. При наведении курсора мыши на число - период времени, за который выпало указанное количество осадков.
R24 - Количество осадков - Количество выпавших осадков за 24 часа, мм.
S - Снежный покров - Высота снежного покрова, см. При наведении курсора мыши на число - состояние снежного покрова и степень покрытия местности в баллах.